Cloud_Cover
100 42 73 98 73 40 5 31 5 5 12 5 97 38 72 8 10 57 41 92 100 100 100 100 100 100 100 100 100 100 100 100 99 100 100 100 100 100 100 100 100 100 100
100 30 29 11 99 63 5 56 65 4 3 4 97 98 90 19 5 15 12 68 92 100 100 100 100 100 100 100 100 100 100 100 100 100 100 100 100 100 100 100 100 100 100
98 37 56 7 94 99 29 20 64 89 84 6 5 88 84 44 5 28 95 75 100 100 100 100 100 100 100 100 100 100 100 100 100 100 100 100 100 100 100 100 100 100 100
100 100 78 100 100 100 5 16 29 8 6 5 5 5 5 5 52 40 5 5 28 62 100 100 100 100 100 11 100 100 100 100 100 100 100 100 100 100 100 100 100 100 100
92 89 32 81 96 84 4 38 72 14 11 5 5 5 5 5 19 17 6 5 6 22 47 98 62 88 100 87 100 88 100 100 100 100 100 100 100 100 100 100 93 100 100
88 77 50 7 89 64 99 100 100 100 82 85 83 18 58 80 25 5 29 15 38 83 30 48 76 64 100 100 99 24 100 100 100 100 100 100 100 100 100 100 91 100 100
90 14 5 78 75 99 100 100 100 100 100 100 100 100 100 100 100 100 100 100 97 42 76 84 55 73 100 41 81 26 67 100 100 100 100 100 100 100 100 100 100 100 100
88 58 46 62 100 100 100 100 100 100 100 100 100 100 100 100 99 68 96 100 100 100 100 100 63 99 98 93 57 56 82 89 100 100 100 100 100 100 100 100 100 100 100
99 66 94 67 100 100 100 100 100 100 100 100 100 100 100 100 100 100 100 82 85 99 99 81 99 99 89 79 11 27 88 97 72 93 89 83 100 100 100 100 100 100 100
100 79 100 98 100 100 100 100 100 100 99 100 94 100 100 100 100 100 100 100 59 5 6 60 44 16 13 21 43 56 66 98 97 99 100 100 91 100 100 100 100 100 100
100 100 100 100 100 100 100 92 95 100 100 100 100 100 100 100 100 100 100 100 100 63 66 100 98 7 5 40 79 100 84 7 14 15 39 91 100 100 100 100 100 100 100
100 100 100 100 100 100 100 100 100 100 100 100 100 100 100 100 100 100 100 100 46 23 18 52 31 8 10 9 66 94 34 22 5 5 12 45 84 99 100 100 100 100 100
100 100 100 100 100 100 100 100 100 66 100 100 100 78 100 100 100 100 76 25 4 4 10 2 0 0 2 4 8 2 2 3 1 1 2 4 5 13 62 96 100 100 100
100 100 100 100 100 100 100 98 100 100 60 70 100 100 100 100 100 59 41 12 3 0 0 0 0 0 0 0 6 0 0 25 42 60 62 49 39 27 4 88 99 100 100
100 100 100 100 100 100 100 100 100 100 100 100 100 100 100 91 87 91 36 23 30 24 0 0 0 0 0 1 0 12 31 2 6 42 96 100 100 100 86 72 21 45 97
100 100 100 98 100 100 100 100 100 100 100 100 100 78 44 26 27 36 70 38 49 30 3 0 37 2 2 2 49 1 0 0 2 70 18 4 41 85 80 100 96 90 49
100 100 100 100 100 100 100 100 100 99 94 99 49 5 1 1 32 32 30 34 100 100 96 94 100 25 7 3 13 0 0 0 49 0 0 0 0 0 0 1 23 58 84
100 100 100 100 100 100 100 100 83 0 0 0 0 0 3 0 10 18 30 30 30 93 96 100 100 100 100 99 99 100 100 0 3 16 0 0 4 2 1 29 100 100 100
100 100 100 100 100 71 13 0 0 4 15 21 17 11 15 3 5 12 21 27 17 4 23 98 95 100 100 100 98 100 67 37 6 0 0 4 1 17 23 2 1 11 98
100 100 100 100 100 0 0 0 0 0 0 5 8 20 20 5 3 0 8 17 10 7 5 6 13 27 16 7 12 27 6 5 55 11 0 0 0 0 0 19 28 95 30
100 100 82 8 0 0 0 0 0 0 0 0 0 0 0 0 0 0 0 2 0 0 0 0 8 6 42 78 82 69 92 24 2 13 0 0 0 0 0 1 0 0 3
0 0 0 0 0 0 0 0 1 0 0 0 0 0 0 0 0 0 0 0 0 0 0 0 1 2 5 54 97 23 31 23 28 4 27 0 0 0 0 0 0 0 2
0 0 0 0 0 0 0 0 0 0 0 0 0 0 0 0 0 0 0 0 0 0 0 0 4 22 56 12 24 33 47 26 14 6 6 0 1 0 1 4 7 5 26
0 0 0 0 0 0 0 0 0 0 0 0 1 0 0 0 0 0 0 0 0 0 0 1 2 5 9 1 5 5 5 3 2 1 8 0 6 0 0 19 11 65 44
0 0 0 0 0 0 0 0 0 0 0 0 1 0 0 0 0 0 0 0 0 0 0 0 0 5 1 0 5 95 6 1 12 17 9 5 2 1 0 0 0 0 5
0 0 0 0 0 0 0 0 0 0 0 0 4 0 0 0 2 0 0 0 0 0 0 1 1 6 31 1 5 79 67 50 100 100 25 5 1 4 4 0 5 5 5